Вернуться в каталог

STARLINK-32633

АктивенСвязьVLEO
NORAD 62306·PAYLOAD·🇺🇸 United States

Запущен Dec 13, 2024 с Vandenberg Space Force Base

Loading…

Ближайшие Пролёты (ближайшие 24 часа)

TLE

СвежийSource: CelesTrak SupGP

Эпоха: Sep 15, 2026, 03:07 UTC

1 62306C 24239F   26258.13034722  .00020371  00000+0  60194-3 0  2585
2 62306  53.1602  30.9868 0001196  90.5091 153.1925 15.34376595    16

Отслеживайте STARLINK-32633 в реальном времени с AllMySat

Download on the App Store